Regional Weather Roundup
Issued by NWS

Home | Current Version | Previous Version | Text Only | Print | Product List | Glossary Off
Versions: 1 2 3 4 5 6 7 8 9 10 11 12 13 14 15 16 17 18 19 20 21 22 23 24 25 26 27 28 29 30 31 32 33 34 35 36 37 38 39 40 41 42 43 44 45 46 47 48 49 50

982
ASUS43 KMKX 221100
RWRWI

WISCONSIN REGIONAL WEATHER ROUNDUP
NATIONAL WEATHER SERVICE MILWAUKEE/SULLIVAN WI
500 AM CST WED NOV 22 2017

NOTE: "FAIR" INDICATES FEW OR NO CLOUDS BELOW 12,000 FEET WITH NO
SIGNIFICANT WEATHER AND/OR OBSTRUCTIONS TO VISIBILITY.

WIZ001-002-006>008-014>016-023>028-221200-
NORTHWEST WISCONSIN

CITY           SKY/WX    TMP DP  RH WIND       PRES   REMARKS
SUPERIOR ARPT  CLOUDY    13  10  84 W5        30.29F WCI   6
ASHLAND        CLOUDY    18  11  74 SW6       30.27F WCI  10
HAYWARD        CLOUDY    15   9  76 SW5       30.26F WCI   8
SIREN          CLOUDY    10   6  87 CALM      30.30S
CUMBERLAND     FLURRIES  14  10  85 CALM      30.28S
RICE LAKE      CLOUDY    14  10  84 CALM      30.31F
CHETEK         CLOUDY    10   8  89 CALM      30.31S
LADYSMITH      CLOUDY    14  10  84 CALM      30.29F
EAU CLAIRE     NOT AVBL
MENOMONIE      CLOUDY    15  10  79 W5        30.34R WCI   8
NEW RICHMOND   CLOUDY    12   9  85 CALM      30.32S
OSCEOLA        CLOUDY    14  10  86 SW5       30.34F WCI   6
$$

WIZ003>005-009-010-017-018-221200-
NORTH CENTRAL WISCONSIN

CITY           SKY/WX    TMP DP  RH WIND       PRES   REMARKS
MANITOWISH WTR FLURRIES  16  11  83 W6        30.21S WCI   7
ARBOR VITAE    FLURRIES  19  13  78 W5        30.20F WCI  12
WOODRUFF       FLURRIES  19  13  78 W5        30.20F WCI  12
RHINELANDER    CLOUDY    18  12  77 NW3       30.21S
EAGLE RIVER    FLURRIES  18  12  77 W3        30.19F
LAND O LAKES   FLURRIES  18  14  84 W5        30.20F WCI  11
PHILLIPS       CLOUDY    14  10  83 CALM      30.24S
TOMAHAWK       CLOUDY    14   9  80 CALM      30.24S
MEDFORD        CLOUDY    16   9  72 NW6       30.26R WCI   8
MERRILL        CLOUDY    17  10  75 CALM      30.25S
$$

WIZ029-030-035-036-043>047-221200-
CENTRAL WISCONSIN

CITY           SKY/WX    TMP DP  RH WIND       PRES   REMARKS
WAUSAU         CLOUDY    17  10  74 NW5       30.25F WCI  10
MOSINEE        CLOUDY    18  12  79 W8        30.28S WCI   7
MARSHFIELD     CLOUDY    16   8  71 NW5       30.27R WCI   9
STEVENS POINT  CLOUDY    17   9  70 NW6       30.29S WCI   8
WAUPACA        CLOUDY    21  12  68 W3        30.30S
WAUTOMA        CLEAR     15  10  80 CALM      30.32R
WISC RAPIDS    CLOUDY    15   8  73 N6        30.31S WCI   6
CAMP DOUGLAS   CLOUDY    11   7  85 NW6       30.32R WCI   1
$$

WIZ011>013-019>022-031-037>040-048>050-221200-
NORTHEAST WISCONSIN

CITY           SKY/WX    TMP DP  RH WIND       PRES   REMARKS
ANTIGO         FLURRIES  18  12  79 NW6       30.24R WCI   9
SHAWANO        CLOUDY    25  14  64 NW5       30.29R WCI  19
OCONTO         CLOUDY    25  12  59 NW6       30.29R WCI  18
STURGEON BAY   FLURRIES  25  13  60 NW12      30.27R WCI  14
GREEN BAY      CLOUDY    24  17  74 NW8       30.29R WCI  15
MANITOWOC      CLOUDY    24  15  68 W7        30.30R WCI  16
APPLETON       CLOUDY    21  14  73 W6        30.27R WCI  14
CLINTONVILLE   CLOUDY    23  10  58 W7        30.29R WCI  15
OSHKOSH        CLEAR     17  11  77 W6        30.29R WCI   9
$$

WIZ032>034-041-042-053>061-221200-
SOUTHWEST WISCONSIN

CITY           SKY/WX    TMP DP  RH WIND       PRES   REMARKS
LA CROSSE      PTCLDY    18  11  74 N5        30.35R WCI  11
SPARTA         CLOUDY    16  10  80 NW5       30.34S WCI   8
VIROQUA        PTCLDY    17  13  86 N7        30.30R WCI   7
BOSCOBEL       CLOUDY    16  11  80 CALM      30.37R
PRAIRIE DU CHI PTCLDY    19  11  72 CALM      30.35R
PLATTEVILLE    CLOUDY    18  15  86 CALM      30.32S
$$

WIZ056-057-062-063-064-067-068-221200-
SOUTH CENTRAL WISCONSIN

CITY           SKY/WX    TMP DP  RH WIND       PRES   REMARKS
REEDSBURG      CLEAR     18  11  74 NW5       30.32R WCI  11
BARABOO/DELLS  CLEAR     18  11  74 NW5       30.31R WCI  11
LONE ROCK      NOT AVBL
MINERAL POINT  CLOUDY    19  16  86 N3        30.30R
MADISON        CLEAR     18  11  74 N7        30.31R WCI   9
MIDDLETON      CLEAR     20  14  78 NW3       30.31R
WATERTOWN      CLEAR     18  14  83 CALM      30.30R
MONROE         CLOUDY    19  14  79 W7        30.30R WCI  10
JANESVILLE     CLEAR     19  14  79 W3        30.31R
$$

WIZ051-052-058>065-066-070>072-221200-
SOUTHEAST WISCONSIN

CITY           SKY/WX    TMP DP  RH WIND       PRES   REMARKS
MILWAUKEE      CLEAR     22  14  71 NW6       30.31R WCI  14
WAUKESHA       CLEAR     19  12  73 NW6       30.30R WCI  11
MILWAUKEE/TIMM CLEAR     19  12  73 NW6       30.31R WCI  11
RACINE         CLEAR     20  14  77 W6        30.32R WCI  12
BURLINGTON     CLEAR     21  18  87 CALM      30.30R
KENOSHA        CLEAR     20  13  74 W6        30.31R WCI  12
FOND DU LAC    CLEAR     18  10  71 NW6       30.30R WCI  10
SHEBOYGAN      MOCLDY    20  14  77 NW5       30.29R WCI  13
WEST BEND      CLEAR     18  12  79 NW5       30.29R WCI  11
JUNEAU         CLEAR     18  12  77 NW5       30.30R WCI  11
$$

LSZ147-162-221200-
LAKE SUPERIOR

STATION/POSITION TIME  TEMP    WIND        PRES    WAVE
                       AIR SEA DIR/SP/G            HT/PER
                 (UTC) (F)     (DEG/KT/KT) (MB)    (FT/S)
DEVILS ISLAND    1000   22     270/ 11/ 13 1026.0F
SAXON HARBOR     1040   20     230/  5/ 10 1024.7S
$$

LMZ867-665-643>646-221200-
LAKE MICHIGAN

STATION/POSITION TIME  TEMP    WIND        PRES    WAVE
                       AIR SEA DIR/SP/G            HT/PER
                 (UTC) (F)     (DEG/KT/KT) (MB)    (FT/S)
N MID LAKE BUOY  0950   28 47  300/ 17/ 23 1023.8R   3/ 5
NORTHPORT PIER   1050   28     320/ 17/ 21 1024.0R
KEWAUNEE LAKESHO 1030   26     310/  6/ 11 1024.2R
SHEBOYGAN LAKESH 1000   25     320/  9/ 10 1026.2R
PORT WASHINGTON  1030   21     290/  4/  7 1027.1R
MILWAUKEE LAKESH 1030   23     310/  7/ 10   N/A
S MID LAKE BUOY  0950   31 47   10/ 14/ 17 1024.8R   5/ 7
KENOSHA   LAKESH 1000   22     280/  8/  9 1025.7
$$

TC  - TEMPERATURE IN CELSIUS
VSB - VISIBILITY IN STATUTE MILES
WCI - WIND CHILL INDEX
HX  - HEAT INDEX





USA.gov is the U.S. government's official web portal to all federal, state and local government web resources and services.